DELTA 1 DEB, 2977

Orbit data source: Space-Track

DELTA 1 DEB, 2977 is space debris in SSO originally from a launch on Thu, 20 Apr 1967 UTC launched from the Air Force Western Test Range (AFWTR). Debris objects in space refer to the collection of defunct objects orbiting the Earth. Examples of debris include non-operational satellites, rocket bodies, and fragments generated from explosions, collisions, or faulty payload assembly.

Loading next visibility...
DELTA 1 DEB details
Identifier
2977, 1967-036D
Orbit
SSO
Last TLE update1 day ago
Origin
Flag of USESSA (US)
ManufacturerUnknown
MissionSpacecraft
Bus & MotorUnknown
MassUnknown
Launch date (UTC)
1967-04-20 (58 years ago)
Launch vehicleUnknown
Launch site
Air Force Western Test Range (AFWTR)
Object type
Payload
Rocket body
Debris
Shape & HBRUnknown
Radar Cross SectionSmall (<0.1 m²)

Expand to show TLE details & history

TLE from 1 day ago
0 DELTA 1 DEB
1 02977U 67036D   25023.86438168 -.00000009  00000-0  20733-3 0  9991
2 02977 101.5399 352.0552 0059616 183.1654 236.0345 12.56843151649404
Epoch: 2025-01-23T20:44Z
Definitive object data (Epoch: 2025-01-23T20:44:42.577Z)
Latitude56.87779°
Longitude-100.7021°
Altitude1,471.559 km
Speed7.121 km/s
True Right ascension22h 15m 38s
True Declination56° 44' 04"
Sunlit
Object was in daylight at TLE epoch
Visualization TLE readout
Latitude67.68629°
Longitude-111.13867°
Altitude1,463.477 km
Speed7.13 km/s
Apparent Right ascension15h 20m 47s
Apparent Declination40° 22' 14"
Sunlit
Object is in daylight
Visualization observer readout
Local Sidereal Time00:50:57
Azimuth332.36° NNW
Elevation-2.764°
Doppler factor1
Orbital elements
Apogee altitude1,480.097 km
Perigee altitude1,386.957 km
Semi-major axis7,811.664 km
Eccentricity0.0059616
Inclination101.5399°
RAAN352.0552°
Arg. of periapsis183.1654°
True anomaly235.47027°
Mean anomaly236.0345°
Eccentric anomaly235.75215°
Mean motion3.1436 °/min
BSTAR0.00020733
Orbital period114.52 mins
Loading maneuver chart data...
Loading historical data...
Loading historical data...
Loading historical data...
Loading historical data...
Loading historical data...
Loading historical data...
Loading historical data...
Other satellites on launch #36 in the year 1967 (1967-04-20 UTC)

DELTA 1 DEB Visibility forecast

Observer location: undefined°, undefined

Span
Click to sort rows by Start time (UTC) header in descending order
Start Az.
Max El. time (UTC)
Max El. Az.
Max El.
End time (UTC)
End Az.
12 mins2025-01-25 09:23:16.878Z43.588° NE2025-01-25 09:29:16.878Z96.453° ESE24.314°2025-01-25 09:35:16.878Z148.009° SSE
14 mins2025-01-25 11:15:16.878Z9.225° NNE2025-01-25 11:22:16.878Z287.766° WNW41.702°2025-01-25 11:29:16.878Z215.694° SW
5 mins2025-01-25 13:11:16.878Z327.232° NNW2025-01-25 13:13:16.878Z311.398° NW13.352°2025-01-25 13:16:16.878Z288.656° WNW
13 mins2025-01-25 20:20:16.878Z117.68° SE2025-01-25 20:26:16.878Z60.876° ENE31.205°2025-01-25 20:33:16.878Z359.089° N
14 mins2025-01-25 22:12:16.878Z188.802° SSW2025-01-25 22:18:16.878Z252.823° W38.077°2025-01-25 22:26:16.878Z332.427° NNW
|